Temperature
22 22 21 21 20 20 22 25 27 27 28 28 27 26 25 24 23 22 22 21 22 21 21 21 20 20 20 20 19 19 19 19 19 19 19 19 19 19 19 19 18 18 18 18 18 18 18 18 18
22 22 21 20 20 21 23 26 27 28 28 27 26 26 25 23 23 22 21 22 22 22 21 21 20 20 20 20 19 19 19 19 19 19 19 19 19 18 18 18 18 18 18 18 18 18 18 18 18
23 22 21 19 20 21 24 26 27 28 28 28 26 26 24 23 22 22 22 22 22 22 21 21 21 20 20 20 19 19 19 19 19 19 18 18 18 18 18 18 18 18 18 18 18 18 18 18 18
23 22 21 20 21 23 25 27 28 28 28 27 26 24 24 23 23 23 22 22 22 22 21 21 21 20 20 20 19 19 19 19 19 18 18 18 18 18 18 18 18 18 18 18 18 18 18 18 17
23 22 20 20 22 25 27 28 29 28 27 26 25 23 22 23 23 23 22 22 22 21 21 21 20 20 20 20 19 19 19 19 19 18 18 18 18 18 18 18 18 18 18 18 18 18 18 18 17
23 21 21 21 24 27 28 29 29 28 27 26 24 22 21 22 22 22 22 21 21 21 21 20 20 20 20 20 19 19 19 19 18 18 18 18 18 18 18 18 18 18 18 18 18 18 18 17 17
23 21 22 23 24 26 28 29 29 27 26 25 25 21 21 21 22 22 21 21 21 21 21 20 20 20 20 20 19 19 19 19 18 18 18 18 18 18 18 18 18 18 18 18 18 18 18 17 17
25 21 23 23 25 27 29 30 29 28 26 26 25 22 21 21 21 21 21 21 21 21 21 20 20 20 19 19 19 19 19 19 18 18 18 18 18 18 18 18 18 18 18 18 18 18 18 17 17
25 22 22 24 26 28 29 29 28 27 26 25 24 24 23 22 21 20 20 20 20 20 20 20 20 19 19 19 19 19 19 19 18 18 18 18 18 18 18 18 18 18 18 18 18 18 18 18 17
25 21 23 26 27 28 30 29 28 26 24 23 23 23 23 22 21 20 20 19 19 20 20 20 20 19 19 19 19 19 19 18 18 18 18 18 18 18 18 18 18 18 18 18 18 18 18 17 17
25 23 26 27 29 29 29 29 29 26 24 24 24 23 22 21 21 20 20 20 20 20 20 20 19 19 19 19 19 19 19 18 18 18 18 18 18 17 18 18 18 18 18 17 17 17 17 17 17
26 26 28 29 30 30 29 28 27 26 26 26 25 24 22 21 21 20 20 20 19 19 19 19 19 19 19 19 19 19 18 18 18 18 18 18 18 17 17 17 17 17 17 17 17 17 17 17 17
26 27 29 29 30 29 29 28 27 26 26 26 24 23 22 21 21 20 20 20 20 19 19 19 19 19 19 19 19 18 18 18 18 18 18 17 18 17 17 17 17 17 17 17 17 17 17 17 17
27 27 28 29 29 29 28 27 26 26 25 24 23 22 22 21 21 21 20 19 19 19 19 19 19 19 19 19 19 18 18 18 18 18 18 17 17 17 17 17 17 17 17 17 17 17 17 17 17
28 26 26 27 28 28 28 26 25 25 25 23 23 22 21 21 21 21 20 20 19 19 19 19 19 19 18 18 18 18 18 18 18 18 18 17 17 17 17 17 17 17 17 17 17 17 17 17 17
26 25 25 27 28 28 27 25 25 25 24 23 23 22 21 21 21 21 20 20 19 19 19 19 18 18 18 18 18 18 18 18 18 18 18 17 17 17 17 17 17 17 17 17 17 17 17 17 17
24 24 25 26 28 28 26 25 25 24 23 22 22 22 21 20 20 20 20 20 20 19 19 18 18 18 18 18 18 18 18 18 18 18 18 18 17 17 17 17 17 17 17 17 17 17 17 17 17
23 24 25 26 27 27 26 24 24 24 23 22 21 21 21 20 20 20 20 20 20 19 19 19 18 18 18 18 18 18 18 18 18 18 18 18 17 17 17 17 17 17 17 17 17 17 17 17 17
25 25 25 26 27 26 25 24 24 23 22 21 21 21 20 20 20 20 20 20 19 19 19 18 18 18 18 18 18 18 18 18 18 18 18 18 17 17 17 17 17 17 17 17 17 17 17 17 17
25 25 25 26 27 26 24 24 23 22 22 22 21 20 20 20 20 20 19 19 19 19 18 18 18 18 18 18 18 18 18 18 18 17 17 17 17 17 17 17 17 17 17 17 17 17 17 17 17
25 25 25 26 26 25 24 23 22 22 22 22 21 21 20 20 20 20 19 19 19 19 19 18 18 18 18 18 18 18 17 17 17 17 17 17 17 17 17 17 17 17 17 17 17 17 17 17 17
25 26 27 27 25 23 24 22 22 21 21 21 21 20 20 20 20 20 19 19 19 19 19 19 19 18 18 18 18 18 18 18 18 18 17 17 17 17 17 17 17 17 17 16 16 16 16 17 17
26 27 27 26 24 22 22 22 21 21 21 21 20 20 20 20 20 20 20 20 19 19 19 19 18 18 18 18 18 18 18 18 18 17 17 17 17 17 17 17 17 16 16 16 16 16 16 16 17
27 27 25 22 20 21 21 22 21 20 21 21 21 20 20 20 20 20 20 20 19 19 19 18 18 18 18 18 18 18 18 18 18 17 17 17 17 17 17 17 17 17 16 16 16 16 16 16 16
26 23 21 22 20 20 20 21 20 21 22 21 21 21 20 21 20 20 19 19 19 19 19 18 18 18 18 18 18 18 18 18 18 18 17 17 17 17 17 17 17 17 16 16 16 16 16 16 16
25 22 21 21 21 20 20 21 21 22 22 22 22 21 21 21 21 20 20 20 19 19 19 18 18 18 18 18 18 18 18 18 18 18 17 17 17 17 17 17 17 16 16 16 16 16 16 16 16
25 23 21 20 21 20 20 20 21 21 21 21 21 21 21 21 20 20 20 20 19 19 19 19 18 18 18 18 18 18 17 17 17 17 17 17 17 17 17 17 17 16 16 16 16 16 16 16 16
26 24 20 20 20 20 21 21 20 21 21 21 20 20 20 20 20 20 20 20 19 19 19 19 18 18 18 18 18 18 17 17 17 17 17 17 17 17 17 17 16 16 16 16 16 16 16 16 16
26 25 22 19 19 20 20 20 21 20 20 20 20 21 21 20 20 20 20 20 19 19 19 18 18 18 18 18 18 18 18 17 17 17 17 17 17 17 17 17 16 16 16 16 16 16 16 16 16
25 24 21 21 20 19 19 20 22 20 20 20 20 20 21 21 20 20 20 20 19 19 19 19 18 18 18 18 18 18 18 17 17 17 17 17 17 17 17 16 16 16 16 16 16 16 16 16 16
Wind_Speed
8 5 2 0 3 3 3 3 2 5 5 7 10 10 8 5 4 4 4 15 18 17 17 21 21 22 21 21 21 20 19 18 18 17 17 17 16 16 16 16 15 15 15 15 15 15 15 16 17
4 3 1 2 4 3 4 2 4 4 7 11 10 10 8 6 6 9 7 15 19 17 17 19 22 22 22 21 20 20 19 18 17 17 17 16 16 16 15 15 15 15 15 15 15 15 15 15 16
3 1 2 3 1 2 4 2 5 5 9 8 6 6 6 6 8 7 10 18 17 15 16 20 23 23 22 21 20 19 19 18 17 17 16 16 16 15 16 15 15 15 15 14 14 15 15 15 15
1 3 3 2 5 8 7 8 4 6 6 6 7 6 4 4 6 10 17 18 18 15 16 21 24 23 22 22 20 20 19 18 17 16 16 15 15 16 15 15 15 15 14 14 14 14 14 14 14
2 3 2 2 6 5 7 6 7 6 5 7 9 6 4 3 14 19 18 18 18 15 15 20 23 23 22 22 20 19 19 18 17 16 16 16 15 15 15 15 15 14 14 13 13 13 12 13 12
1 2 1 4 6 4 4 4 7 7 8 8 8 6 3 7 16 19 17 15 17 17 14 18 22 23 22 22 21 20 19 18 17 17 16 15 15 15 15 15 14 14 13 13 12 11 11 11 10
3 2 3 5 5 5 4 4 6 8 9 6 9 7 3 8 13 17 17 16 15 15 13 12 17 19 21 21 21 20 19 18 17 16 16 16 15 15 14 14 14 13 12 12 11 10 9 9 8
5 2 4 4 5 6 4 2 4 9 7 7 8 10 7 9 13 16 16 15 15 13 12 10 12 14 15 17 20 19 19 18 17 16 16 15 15 14 14 13 13 12 11 10 9 8 8 7 7
3 1 5 6 5 6 5 1 3 6 8 4 3 4 10 17 17 18 15 13 13 13 11 11 10 10 12 14 17 18 18 17 16 15 15 14 12 12 12 12 12 11 11 10 8 7 6 5 4
5 4 9 7 6 7 6 1 6 5 6 3 4 5 13 17 18 20 19 18 16 16 13 11 11 9 10 12 13 12 13 13 12 12 13 12 11 10 10 12 11 10 10 9 7 5 4 3 2
6 8 10 12 12 8 4 1 2 10 4 7 11 13 13 15 15 17 18 18 17 16 15 12 12 10 8 6 9 7 9 9 10 11 12 11 9 8 8 7 7 7 7 5 5 4 2 2 2
6 10 11 10 10 6 3 1 2 3 6 10 15 18 16 15 15 15 16 17 16 16 15 13 12 11 7 7 7 6 6 6 6 9 11 9 6 5 6 5 5 5 5 4 4 3 3 3 3
7 9 11 12 8 4 1 1 3 2 6 12 15 15 15 14 12 11 13 15 16 16 14 14 13 11 9 8 6 7 5 6 8 8 10 11 6 5 5 4 5 5 5 4 3 3 3 2 3
7 10 11 10 7 3 0 0 2 3 9 12 14 13 14 14 13 12 14 15 15 15 14 13 13 11 10 8 6 6 6 7 8 8 9 11 9 6 5 4 4 5 6 6 5 4 3 2 3
7 9 11 8 5 3 2 3 2 6 11 11 11 11 10 10 12 14 15 15 16 15 14 14 13 11 11 9 7 7 7 8 6 7 9 11 10 9 6 4 3 4 6 5 4 2 2 2 2
7 6 6 10 5 3 2 5 5 7 13 10 10 10 9 8 10 12 14 14 15 15 13 14 14 12 10 8 6 5 6 7 6 7 8 10 10 10 7 4 3 5 5 4 3 2 2 2 2
4 4 7 10 7 3 1 3 3 6 11 9 8 8 7 6 7 10 13 15 15 15 15 13 12 12 10 8 6 5 6 5 6 7 6 8 9 10 8 4 3 5 4 3 3 3 3 2 2
6 6 8 10 8 4 1 3 3 4 8 9 8 9 9 8 8 10 12 14 14 14 14 14 12 11 9 7 6 5 5 4 4 5 6 8 8 9 8 4 4 5 4 3 3 3 2 2 2
9 11 14 14 11 3 0 2 2 4 6 7 6 7 8 8 6 8 11 12 13 12 12 12 12 11 10 8 6 6 5 4 4 4 7 8 8 9 7 4 4 4 4 4 4 3 3 2 2
12 12 13 11 7 1 2 1 0 3 5 8 9 8 8 8 8 9 10 11 12 13 13 12 12 11 10 7 6 5 5 4 4 3 4 8 8 8 7 5 5 4 4 4 4 4 3 1 2
14 11 10 8 5 4 3 3 2 2 3 4 5 8 10 12 12 11 12 11 12 14 14 13 11 11 10 9 6 6 5 4 3 3 3 4 7 8 7 7 5 5 4 4 4 4 4 2 1
13 14 11 6 1 3 1 2 5 2 0 3 5 7 9 10 10 10 11 11 12 12 12 11 11 11 10 10 9 9 7 6 6 5 4 4 6 7 8 8 6 5 4 4 3 4 3 4 2
12 12 6 2 1 3 5 1 5 2 1 3 4 7 9 11 12 12 12 12 11 11 10 10 10 10 10 10 11 10 7 5 5 5 6 5 4 6 8 8 6 5 4 5 4 4 4 3 3
9 4 5 6 5 2 4 1 5 4 5 4 4 6 9 10 11 10 10 9 9 9 9 10 10 9 9 10 10 9 9 8 9 8 7 5 4 4 6 7 6 6 5 5 5 5 5 4 4
3 3 4 5 5 4 4 2 7 7 5 5 7 8 9 10 10 10 11 11 11 11 10 10 11 10 10 10 10 9 10 10 11 10 9 7 5 4 6 6 5 5 5 5 4 4 4 4 4
6 9 8 5 5 5 3 4 7 6 3 2 4 6 9 10 10 11 11 12 12 12 11 11 11 10 10 10 9 8 9 7 7 9 8 8 7 7 7 7 6 6 6 5 4 3 3 3 3
7 7 10 8 3 1 4 5 7 4 2 2 2 4 7 10 11 11 11 10 10 11 11 11 11 10 10 10 9 8 8 8 8 8 8 7 6 7 8 8 7 6 6 5 5 3 3 3 3
9 8 6 6 5 3 4 4 4 3 2 2 3 4 6 8 9 9 10 11 10 10 9 10 10 11 10 11 10 9 8 8 8 7 8 8 8 7 8 8 7 6 6 5 5 3 3 4 3
2 3 5 6 6 7 4 6 6 8 7 6 4 5 8 8 9 9 8 9 9 8 9 9 9 9 9 10 9 8 8 7 7 7 7 7 7 8 9 8 7 6 5 5 5 4 3 4 3
5 5 6 5 4 5 5 7 3 8 7 5 5 5 7 8 7 7 8 7 7 8 8 9 9 9 9 9 8 8 7 7 7 7 7 7 7 7 7 7 7 6 6 5 6 5 4 4 4
Wind_Direction
204 208 182 73 38 29 290 262 108 84 72 74 87 94 96 89 129 144 134 137 136 143 148 147 145 142 139 136 133 131 129 125 123 121 120 117 116 116 116 116 116 115 115 115 115 115 114 115 116
199 196 114 49 58 1 291 205 111 109 114 108 92 94 86 74 92 112 125 140 138 141 145 146 144 142 140 138 137 135 133 130 128 127 125 123 121 120 119 118 119 119 118 118 118 118 117 117 118
218 188 88 57 46 230 269 245 151 124 117 112 100 82 94 118 121 134 149 142 136 139 143 147 145 143 141 140 139 138 135 134 133 131 129 128 125 122 122 121 120 120 120 120 120 120 120 119 120
158 55 50 52 268 255 247 248 176 125 114 93 98 80 75 108 137 139 141 142 137 139 143 148 146 144 143 142 141 140 139 138 136 134 132 131 129 126 124 123 121 120 120 122 121 122 123 122 123
98 87 54 291 265 256 250 229 162 137 132 109 102 96 63 48 118 133 142 142 140 139 142 147 145 145 144 144 143 143 142 141 139 137 136 133 131 129 126 125 124 123 123 124 123 124 125 126 126
68 100 86 272 270 273 260 193 140 120 113 114 111 109 82 118 129 141 144 144 141 141 140 146 147 147 147 148 147 145 144 143 142 141 139 138 136 132 130 129 128 127 126 126 125 126 126 126 125
161 159 223 245 275 284 248 200 143 126 121 137 133 120 129 144 143 144 142 139 138 140 140 143 147 149 149 148 148 147 146 146 145 144 141 140 138 136 135 133 132 132 132 131 131 130 130 126 123
175 138 269 256 254 265 243 195 141 129 129 134 135 144 165 168 142 138 137 136 137 141 143 144 143 146 146 148 149 149 149 149 148 147 145 143 143 141 140 139 139 139 140 139 138 138 136 129 124
159 110 254 246 245 261 274 140 103 96 114 111 117 150 152 146 139 137 136 133 141 147 151 148 143 142 143 148 153 152 151 153 151 151 151 146 143 145 146 148 148 147 147 148 148 149 146 137 129
150 190 238 238 248 272 288 140 134 112 107 92 81 98 133 143 146 149 153 153 156 159 159 154 152 150 151 156 151 153 153 154 151 153 147 146 149 154 156 160 157 155 153 156 161 168 167 151 134
190 217 252 266 269 274 294 327 116 135 144 175 161 152 150 151 155 160 162 161 162 160 159 159 158 158 161 150 151 151 149 150 153 159 155 156 155 155 152 155 158 160 161 159 172 186 197 191 183
246 262 267 274 284 295 291 206 97 149 180 165 156 155 159 163 167 168 164 162 159 162 162 161 160 160 159 150 157 155 154 156 162 173 169 158 150 148 154 156 162 169 175 175 176 192 207 215 195
263 275 283 279 294 299 331 93 135 150 130 133 140 147 158 167 166 161 156 160 160 163 164 164 161 161 158 155 165 163 165 167 171 173 172 164 155 157 160 168 175 184 182 177 178 185 180 180 162
275 296 302 296 300 289 274 323 109 163 132 131 140 152 162 169 164 155 156 163 168 164 163 161 162 161 156 163 169 163 166 167 165 164 167 163 160 157 155 157 167 181 182 178 171 171 158 157 145
310 317 315 301 302 288 61 345 249 155 136 135 140 151 159 168 164 164 166 168 167 163 161 160 163 161 163 168 172 165 165 163 156 160 164 162 159 157 154 155 164 172 173 164 147 140 122 132 126
335 333 311 295 298 279 97 263 257 151 141 145 147 150 155 168 174 167 164 164 164 159 161 164 167 164 165 165 161 156 156 155 152 154 159 159 157 153 147 151 159 161 154 143 131 125 113 103 119
338 302 290 299 294 293 112 239 242 165 145 145 144 146 150 165 173 165 162 161 160 161 162 166 163 164 163 158 147 143 142 148 152 152 157 154 152 150 144 144 148 143 131 134 145 121 128 127 136
266 281 290 291 292 307 301 236 195 171 148 150 152 151 161 177 182 168 164 161 161 161 162 162 160 161 154 148 140 132 128 140 144 151 158 150 148 148 141 136 130 126 121 122 120 119 111 129 156
261 278 283 283 282 306 241 252 213 170 151 150 162 165 162 165 170 162 160 160 159 159 161 162 161 160 157 156 152 147 149 151 156 166 158 152 146 144 140 133 128 129 132 140 133 118 108 99 112
265 275 281 288 291 355 91 57 235 176 169 165 172 167 165 157 154 164 167 167 167 167 167 167 166 164 164 162 157 154 150 155 161 158 155 158 150 148 146 138 142 138 128 125 124 121 115 76 112
266 260 263 269 311 15 76 351 310 276 124 139 155 163 165 164 163 163 169 172 170 171 173 173 169 166 164 155 144 136 117 106 129 155 171 173 157 152 144 147 143 143 143 148 146 133 130 130 47
263 261 258 267 319 310 37 263 284 276 83 153 159 159 165 161 162 164 167 174 179 178 174 170 169 167 165 157 155 156 158 163 179 177 174 173 161 153 151 147 141 142 144 149 158 144 137 133 117
247 259 260 269 103 22 360 103 291 350 256 231 199 174 175 171 171 177 177 178 180 178 174 170 167 169 168 164 167 167 166 168 164 162 161 167 169 160 154 149 143 143 146 154 148 135 130 130 140
254 288 359 40 68 13 284 164 276 250 227 234 211 182 183 175 177 179 171 167 175 174 172 168 169 172 171 168 169 171 170 166 163 167 171 174 172 166 162 154 149 148 152 159 156 145 140 135 132
252 102 19 352 3 262 270 206 246 253 236 214 202 199 185 175 173 172 168 169 174 174 173 171 171 175 176 175 175 178 177 171 173 174 178 176 176 184 182 166 160 157 163 162 153 145 149 150 144
223 152 163 199 224 261 298 241 260 278 269 205 179 183 172 170 173 177 178 175 176 177 175 173 175 178 179 180 181 180 174 172 177 179 179 182 184 187 181 170 167 169 167 163 153 147 160 159 156
198 194 175 151 173 190 277 282 306 337 9 45 88 152 168 173 176 179 178 175 176 177 180 178 177 178 182 183 180 177 174 175 181 181 181 184 184 183 178 171 170 173 167 160 156 158 175 171 178
184 174 111 127 161 218 269 261 241 246 233 203 163 174 178 171 169 173 178 178 178 180 180 178 180 183 182 183 184 185 181 181 182 177 182 185 183 175 168 171 169 170 168 162 161 165 174 175 192
165 141 130 134 152 156 214 260 223 193 193 181 185 179 170 166 171 171 180 179 175 174 176 179 180 179 181 184 185 181 181 181 178 179 183 180 174 167 168 169 167 168 171 168 167 179 179 192 217
155 161 140 151 213 164 171 254 265 173 169 156 159 161 157 150 160 167 165 161 164 175 181 181 179 178 181 180 178 179 176 173 174 178 177 167 162 162 162 161 163 171 175 177 179 193 194 199 216
Height
1509 1508 1508 1507 1508 1515 1513 1499 1487 1485 1484 1484 1485 1487 1491 1495 1500 1507 1504 1504 1508 1512 1515 1518 1520 1522 1524 1525 1527 1528 1530 1531 1532 1533 1534 1535 1537 1538 1539 1540 1541 1542 1542 1543 1544 1545 1546 1546 1547
1509 1508 1508 1508 1514 1524 1513 1493 1488 1484 1484 1485 1487 1489 1492 1496 1497 1499 1501 1505 1509 1512 1515 1518 1521 1523 1524 1526 1528 1529 1530 1532 1533 1534 1535 1536 1538 1539 1540 1541 1542 1543 1543 1544 1545 1546 1547 1548 1549
1509 1509 1510 1511 1517 1520 1509 1491 1485 1483 1483 1484 1488 1490 1493 1497 1497 1499 1501 1505 1509 1512 1515 1518 1521 1523 1524 1526 1528 1530 1531 1533 1534 1535 1536 1538 1539 1540 1541 1542 1543 1544 1545 1546 1547 1548 1549 1550 1551
1510 1511 1511 1516 1518 1505 1496 1488 1482 1482 1484 1485 1487 1492 1495 1497 1497 1499 1502 1505 1508 1512 1515 1518 1520 1522 1524 1526 1528 1530 1532 1533 1535 1536 1537 1539 1540 1541 1542 1543 1544 1545 1546 1547 1548 1549 1551 1552 1553
1510 1511 1515 1519 1510 1495 1486 1481 1480 1481 1483 1485 1487 1493 1496 1498 1497 1499 1502 1505 1508 1511 1515 1518 1520 1522 1524 1526 1528 1530 1532 1534 1535 1537 1538 1540 1541 1542 1543 1544 1545 1547 1548 1549 1550 1551 1553 1554 1555
1511 1510 1519 1520 1505 1490 1482 1479 1478 1480 1483 1486 1488 1492 1497 1498 1498 1500 1503 1506 1509 1511 1514 1517 1520 1522 1524 1526 1529 1531 1533 1534 1536 1538 1539 1541 1542 1543 1544 1545 1547 1548 1549 1551 1552 1553 1554 1555 1556
1510 1511 1516 1511 1501 1491 1481 1477 1477 1479 1482 1485 1486 1492 1496 1498 1498 1499 1502 1506 1509 1512 1514 1516 1520 1522 1524 1526 1529 1531 1533 1535 1537 1539 1540 1541 1543 1544 1546 1547 1548 1549 1551 1552 1553 1555 1556 1557 1558
1506 1509 1510 1507 1499 1490 1478 1476 1476 1477 1481 1484 1484 1487 1492 1496 1497 1500 1503 1506 1508 1511 1514 1516 1519 1522 1524 1527 1529 1531 1534 1535 1537 1539 1541 1542 1544 1545 1547 1548 1549 1551 1552 1553 1555 1556 1557 1558 1560
1504 1511 1513 1503 1494 1485 1476 1476 1478 1478 1479 1482 1483 1484 1487 1493 1497 1499 1502 1505 1507 1510 1513 1516 1519 1521 1524 1527 1529 1532 1534 1536 1538 1540 1541 1543 1544 1546 1547 1549 1550 1552 1553 1554 1556 1557 1558 1560 1561
1500 1510 1501 1488 1484 1480 1476 1474 1475 1479 1480 1482 1483 1486 1489 1491 1495 1496 1498 1500 1504 1508 1512 1515 1518 1521 1524 1527 1529 1532 1534 1536 1538 1540 1541 1543 1545 1546 1548 1550 1551 1553 1554 1555 1557 1558 1559 1560 1561
1495 1497 1487 1482 1479 1477 1475 1474 1473 1475 1479 1478 1479 1484 1488 1491 1493 1495 1496 1499 1502 1506 1510 1514 1517 1521 1524 1526 1529 1531 1534 1536 1538 1541 1542 1544 1545 1547 1548 1550 1552 1553 1555 1556 1557 1559 1560 1561 1562
1491 1486 1482 1478 1475 1474 1472 1472 1473 1473 1474 1474 1477 1480 1485 1489 1491 1492 1495 1498 1502 1505 1509 1513 1517 1520 1524 1527 1529 1531 1534 1536 1538 1541 1542 1544 1545 1547 1549 1551 1552 1554 1555 1557 1558 1559 1560 1562 1563
1487 1483 1479 1475 1473 1472 1471 1471 1471 1473 1473 1474 1477 1481 1484 1486 1489 1492 1494 1497 1499 1503 1508 1512 1516 1519 1523 1526 1529 1531 1534 1535 1538 1540 1542 1544 1545 1547 1549 1551 1553 1554 1556 1557 1558 1559 1561 1562 1563
1484 1480 1476 1473 1470 1469 1470 1471 1471 1473 1474 1475 1477 1479 1482 1485 1487 1490 1493 1495 1498 1501 1505 1511 1515 1518 1522 1525 1528 1531 1533 1535 1537 1540 1542 1544 1546 1547 1549 1551 1552 1554 1555 1557 1558 1560 1561 1562 1563
1482 1481 1476 1470 1468 1468 1469 1474 1472 1472 1474 1476 1478 1480 1483 1485 1486 1488 1490 1492 1495 1500 1505 1508 1513 1516 1520 1524 1527 1530 1532 1534 1537 1539 1542 1544 1546 1547 1549 1550 1552 1554 1555 1557 1558 1560 1561 1562 1563
1483 1486 1488 1473 1466 1466 1473 1483 1472 1472 1473 1475 1476 1478 1481 1484 1486 1487 1488 1491 1495 1498 1503 1507 1511 1515 1519 1522 1525 1528 1531 1534 1536 1539 1542 1544 1545 1547 1548 1550 1552 1553 1555 1556 1557 1559 1560 1562 1563
1491 1497 1492 1478 1465 1465 1471 1479 1471 1474 1473 1474 1475 1477 1480 1483 1486 1486 1487 1490 1494 1497 1501 1505 1509 1512 1517 1521 1524 1527 1530 1533 1536 1539 1541 1543 1545 1546 1548 1550 1551 1553 1554 1555 1557 1558 1560 1561 1563
1501 1496 1491 1483 1468 1466 1472 1474 1470 1474 1474 1475 1475 1476 1478 1481 1484 1486 1486 1489 1493 1496 1500 1504 1507 1511 1515 1519 1523 1526 1529 1532 1535 1538 1540 1542 1544 1546 1547 1549 1551 1552 1554 1555 1557 1558 1560 1561 1562
1488 1490 1489 1478 1465 1469 1473 1475 1472 1473 1474 1475 1477 1477 1478 1480 1483 1486 1487 1488 1492 1495 1499 1502 1506 1510 1514 1517 1521 1524 1527 1530 1534 1537 1539 1541 1543 1545 1546 1548 1550 1551 1553 1554 1556 1557 1559 1560 1562
1484 1488 1485 1474 1464 1469 1476 1477 1473 1472 1473 1473 1474 1475 1477 1479 1482 1484 1487 1489 1491 1494 1497 1501 1505 1509 1513 1516 1520 1523 1526 1529 1533 1536 1538 1540 1542 1544 1545 1547 1549 1550 1552 1553 1555 1556 1558 1559 1561
1481 1484 1480 1476 1469 1470 1476 1483 1478 1474 1472 1473 1473 1474 1475 1476 1479 1481 1484 1488 1490 1493 1497 1501 1504 1507 1511 1515 1519 1522 1525 1528 1531 1534 1537 1539 1541 1543 1544 1546 1548 1549 1551 1552 1553 1555 1556 1558 1560
1482 1468 1468 1469 1478 1488 1482 1499 1483 1477 1474 1473 1472 1474 1476 1477 1479 1480 1483 1487 1490 1493 1496 1500 1503 1507 1510 1513 1516 1519 1522 1525 1528 1531 1535 1538 1540 1542 1543 1545 1546 1548 1549 1551 1552 1554 1555 1557 1558
1469 1460 1463 1466 1477 1489 1487 1495 1491 1479 1478 1474 1471 1473 1475 1476 1478 1480 1483 1486 1490 1493 1496 1499 1502 1505 1508 1512 1515 1518 1521 1524 1527 1531 1533 1536 1538 1540 1542 1544 1545 1547 1548 1549 1551 1552 1554 1556 1557
1457 1461 1467 1476 1488 1504 1494 1496 1496 1482 1474 1470 1469 1471 1474 1476 1477 1480 1483 1486 1489 1493 1495 1498 1500 1503 1507 1510 1514 1516 1519 1522 1525 1528 1531 1534 1536 1538 1540 1542 1544 1545 1547 1548 1549 1551 1553 1555 1556
1458 1478 1500 1502 1512 1509 1492 1493 1491 1470 1465 1465 1466 1469 1472 1474 1477 1479 1482 1485 1488 1491 1493 1496 1499 1501 1505 1508 1511 1515 1518 1520 1523 1526 1528 1531 1533 1536 1538 1540 1542 1544 1545 1547 1548 1550 1551 1553 1555
1458 1473 1500 1511 1514 1508 1494 1494 1480 1464 1462 1462 1463 1466 1470 1473 1475 1478 1481 1484 1487 1489 1492 1494 1496 1499 1503 1506 1509 1513 1516 1518 1521 1524 1526 1528 1531 1533 1536 1538 1540 1542 1544 1546 1547 1549 1550 1552 1553
1456 1465 1468 1489 1496 1507 1501 1488 1473 1463 1462 1463 1465 1467 1470 1472 1474 1476 1479 1483 1485 1488 1490 1492 1494 1497 1500 1503 1507 1510 1513 1516 1518 1521 1524 1526 1529 1532 1534 1537 1539 1541 1543 1544 1546 1547 1549 1550 1551
1442 1450 1471 1487 1503 1510 1501 1492 1486 1471 1468 1465 1466 1468 1469 1472 1473 1476 1479 1481 1484 1486 1489 1491 1493 1495 1497 1501 1504 1507 1510 1513 1516 1519 1521 1524 1527 1530 1532 1535 1537 1539 1541 1543 1545 1546 1547 1548 1549
1446 1452 1463 1480 1486 1502 1509 1496 1466 1464 1463 1464 1465 1467 1469 1471 1473 1476 1479 1481 1483 1486 1488 1489 1491 1493 1496 1498 1501 1504 1507 1510 1513 1516 1519 1522 1525 1527 1530 1533 1535 1537 1539 1541 1543 1544 1545 1547 1547
1440 1449 1461 1479 1484 1487 1496 1489 1457 1459 1460 1462 1464 1467 1468 1470 1473 1475 1478 1480 1482 1485 1487 1488 1490 1492 1494 1497 1499 1502 1504 1507 1510 1513 1517 1520 1523 1525 1528 1531 1534 1536 1537 1539 1541 1542 1543 1544 1545